Miscellaneous Local Product
Issued by NWS North Platte, NE

Home | Current Version | Previous Version | Text Only | Print | Product List | Glossary On
Versions: 1 2 3 4 5 6 7 8 9 10 11 12 13 14 15 16 17 18 19 20 21 22 23 24 25 26 27 28 29 30 31 32 33 34 35 36 37 38 39 40 41 42 43 44 45 46 47 48 49 50
000
AXUS43 KLBF 271210
MISLBF


WESTERN AND NORTH CENTRAL NEBRASKA HOURLY WEATHER ROUNDUP
NATIONAL WEATHER SERVICE NORTH PLATTE NE
600 AM CST TUE JAN 27 2015

***STATIONS NOT REPORTING VARIABLES SUCH AS SKY/WEATHER OR
PRESSURE ARE PROVIDED BY THE NEBRASKA DEPARTMENT OF
ROADS...RAWS...AND APRS NETWORKS...AND ARE NOT UNDER
NATIONAL WEATHER SERVICE QUALITY CONTROL***

...OBSERVATIONS IN AND NEAR THE EASTERN PANHANDLE OF NEBRASKA...

CITY           SKY/WX    TMP DP  RH WIND       PRES   REMARKS
PINE RIDGE     CLEAR     39  27  62 SW9       30.01S WCI  33
CHADRON        PTCLDY    34  28  79 SW7       30.02F WCI  28
ALLIANCE       CLEAR     30  26  85 W8        30.04F WCI  22
SIDNEY         CLEAR     34  26  72 W8        30.08F WCI  27
WHITECLAY        N/A     30  25  80 E9          N/A  WCI  22
CRESCENT LAKE    N/A     42  25  51 W7          N/A
LISCO            N/A     30  25  80 CALM        N/A
LEWELLEN         N/A     28  26  94 W6          N/A  WCI  21
$$

...OBSERVATIONS IN NORTH CENTRAL NEBRASKA...

CITY           SKY/WX    TMP DP  RH WIND       PRES   REMARKS
VALENTINE      PTCLDY    32  29  88 SW6       29.98S WCI  26
THEDFORD       CLEAR     34  30  87 W5        30.01F WCI  30
AINSWORTH      CLEAR     35  30  82 SW6       29.98S WCI  30
O`NEILL        CLEAR     33  29  86 SE6       30.00S WCI  27
ORD            CLEAR     25  22  88 CALM      30.02S
BROKEN BOW     CLEAR     31  27  85 N3        30.01S
BROWNLEE         N/A     37  30  77 SW6         N/A  WCI  32
VALENTINE NWR    N/A     31  29  92 S5          N/A  WCI  26
HALSEY           N/A     34  30  85 CALM        N/A
BREWSTER         N/A     34  30  86 CALM        N/A
ROSE             N/A     35  33  92 E5          N/A  WCI  31
NEWPORT          N/A     34  32  92 S5          N/A  WCI  30
SARGENT          N/A     26  24  94 CALM        N/A
COMSTOCK         N/A     34  30  86 CALM        N/A
CHAMBERS         N/A     31  25  78 CALM        N/A
EWING            N/A     30  28  90 E3          N/A
$$

...OBSERVATIONS IN SOUTHWEST NEBRASKA AND FAR NORTHEAST COLORADO...

CITY           SKY/WX    TMP DP  RH WIND       PRES   REMARKS
WRAY           FAIR      34  30  83 W9        30.09S WCI  27
HOLYOKE        FAIR      41  30  65 W15       30.07F
IMPERIAL       PTCLDY    29  23  78 W3        30.06F
OGALLALA       PTCLDY    31  28  89 W7        30.06S WCI  24
NORTH PLATTE   PTCLDY    25  23  92 W5        30.04F WCI  19
MCCOOK         PTCLDY    31  27  85 W8        30.06F WCI  23
LEXINGTON      CLEAR     28  25  90 NW7       30.03F WCI  21
BRADY            N/A     32  28  84 CALM        N/A
GOTHENBURG       N/A     36  28  73 W5          N/A  WCI  32
CALLAWAY         N/A     39  31  75 NW8         N/A  WCI  33
$$

...NORTH PLATTE AREA...

CITY           SKY/WX    TMP DP  RH WIND       PRES   REMARKS
AIRPORT        PTCLDY    25  23  92 W5        30.04F WCI  19
DOWNTOWN         N/A     31  27  85 CALM        N/A
$$

...SOME WEATHER OBSERVATIONS FROM AROUND THE REGION...

CITY           SKY/WX    TMP DP  RH WIND       PRES   REMARKS
DENVER         CLEAR     47  23  38 SW18      30.16S
LARAMIE        PTCLDY    30  19  63 S6        30.26S WCI  24
CHEYENNE       CLEAR     46  18  32 W14       30.16S
SCOTTSBLUFF    PTCLDY    29  26  89 N5        30.07S WCI  24
RAPID CITY     PTCLDY    41  25  53 W9        29.94S
PIERRE         PTCLDY    29  26  89 SE6       29.93F WCI  23
WINNER         FAIR      41  31  67 S3        29.95S
SIOUX FALLS    PTCLDY    26  24  92 CALM      30.05S FOG
OMAHA          CLEAR     29  26  89 CALM      30.09S
GRAND ISLAND   CLEAR     28  25  88 SE7       30.05F WCI  21
KANSAS CITY    CLEAR     35  30  82 NW5       30.10R WCI  31
WICHITA        CLEAR     32  27  81 CALM      30.10S
HAYS           CLEAR     30  19  64 SW6       30.08S WCI  24
LIBERAL        PTCLDY    36  27  69 NW6       30.16R WCI  31
GOODLAND       CLEAR     44  29  55 W13       30.09F
$$



USA.gov is the U.S. government's official web portal to all federal, state and local government web resources and services.